Weather History for EGSC - October, 2012

Change the Weather History Date:

Tuesday, October 30, 2012

  Actual Average Record
Temperature  
Mean Temperature 44 °F -  
Max Temperature 50 °F 48 °F 68 °F (2005)
Min Temperature 39 °F 40 °F 19 °F (1997)
Degree Days  
Heating Degree Days 20    
Moisture  
Dew Point 38 °F    
Average Humidity 80    
Maximum Humidity 93    
Minimum Humidity 62    
Precipitation  
Precipitation 0.00 in - - ()
Sea Level Pressure  
Sea Level Pressure 29.61 in    
Wind  
Wind Speed 7 mph ()    
Max Wind Speed 13 mph    
Max Gust Speed -    
Visibility 5.6 miles    
Events      
Averages and records for this station are not official NWS values.
T = Trace of Precipitation, MM = Missing Value Source: Averaged Metar Reports

Daily Weather History Graph

Daily Weather History Graph

Search for Another Location

Airport or City:

Trip Planner

Search our weather history database for the weather conditions in past years. The results will help you decide how hot, cold, wet, or windy it might be!

Date:

Astronomy

Oct. 30, 2012 Rise Set
Actual Time 6:51 AM GMT 4:33 PM GMT
Civil Twilight 6:16 AM GMT 5:08 PM GMT
Nautical Twilight 5:36 AM GMT 5:48 PM GMT
Astronomical Twilight 4:56 AM GMT 6:28 PM GMT
Moon 4:43 PM GMT (10/30) 7:33 AM GMT (10/30)
Length of Visible Light 10h 52m
Length of Day
9h 41m
Full, 100% of the Moon is Illuminated
Oct 30
Full
Nov 7
Last Quarter
Nov 13
New
Nov 20
First Quarter
Nov 28
Full

Hourly Weather History & Observations

Time (GMT) Temp. Windchill Dew Point Humidity Pressure Visibility Wind Dir Wind Speed Gust Speed Precip Events Conditions
6:50 AM 41.0 °F 38.0 °F 39.2 °F 93% 29.68 in 3.1 mi WSW 4.6 mph - N/A   Mist
7:20 AM 39.2 °F 34.2 °F 37.4 °F 93% 29.68 in 3.1 mi WSW 6.9 mph - N/A   Mist
7:50 AM 41.0 °F 37.1 °F 39.2 °F 93% 29.68 in 3.1 mi WSW 5.8 mph - N/A   Mist
8:20 AM 39.2 °F 35.0 °F 37.4 °F 93% 29.68 in 4.3 mi WSW 5.8 mph - N/A   Unknown
8:50 AM 42.8 °F 39.3 °F 39.2 °F 87% 29.68 in 5.0 mi WSW 5.8 mph - N/A   Unknown
9:20 AM 44.6 °F 40.2 °F 39.2 °F 81% 29.68 in 5.6 mi West 8.1 mph - N/A   Unknown
9:50 AM 44.6 °F 39.7 °F 39.2 °F 81% 29.68 in 5.6 mi West 9.2 mph - N/A   Unknown
10:20 AM 46.4 °F 42.4 °F 39.2 °F 76% 29.68 in 5.6 mi West 8.1 mph - N/A   Unknown
10:50 AM 48.2 °F - 41.0 °F 76% 29.68 in 6.2 mi SW 9.2 mph - N/A   Partly Cloudy
11:20 AM 48.2 °F - 41.0 °F 76% 29.65 in 6.2 mi WSW 9.2 mph - N/A   Partly Cloudy
11:50 AM 48.2 °F - 41.0 °F 76% 29.65 in 6.2 mi WSW 8.1 mph - N/A   Partly Cloudy
12:20 PM 48.2 °F - 41.0 °F 76% 29.62 in 6.2 mi WSW 10.4 mph - N/A   Partly Cloudy
1:20 PM 50.0 °F - 41.0 °F 71% 29.62 in 6.2 mi WSW 11.5 mph - N/A   Partly Cloudy
1:50 PM 50.0 °F - 39.2 °F 66% 29.59 in 6.2 mi SW 11.5 mph - N/A   Partly Cloudy
2:20 PM 50.0 °F - 39.2 °F 66% 29.59 in 6.2 mi SW 12.7 mph - N/A   Partly Cloudy
2:50 PM 50.0 °F - 37.4 °F 62% 29.59 in 6.2 mi SW 12.7 mph - N/A   Partly Cloudy
3:20 PM 48.2 °F - 39.2 °F 71% 29.59 in 6.2 mi SW 9.2 mph - N/A   Partly Cloudy
3:50 PM 48.2 °F - 39.2 °F 71% 29.56 in 6.2 mi SW 10.4 mph - N/A   Partly Cloudy
4:20 PM 46.4 °F 41.9 °F 37.4 °F 71% 29.56 in 6.2 mi SW 9.2 mph - N/A   Partly Cloudy
5:20 PM 41.0 °F 38.0 °F 35.6 °F 81% 29.56 in 6.2 mi SSW 4.6 mph - N/A   Partly Cloudy
5:50 PM 41.0 °F 37.1 °F 35.6 °F 81% 29.56 in 6.2 mi South 5.8 mph - N/A   Partly Cloudy
6:20 PM 39.2 °F 35.0 °F 35.6 °F 87% 29.56 in - South 5.8 mph - N/A   Clear
6:50 PM 41.0 °F 36.4 °F 35.6 °F 81% 29.53 in - South 6.9 mph - N/A   Clear
7:20 PM 39.2 °F 34.2 °F 35.6 °F 87% 29.53 in - South 6.9 mph - N/A   Clear
7:50 PM 39.2 °F 34.2 °F 35.6 °F 87% 29.53 in - South 6.9 mph - N/A   Clear
8:20 PM 39.2 °F 35.0 °F 35.6 °F 87% 29.53 in - SSW 5.8 mph - N/A   Clear
8:50 PM 39.2 °F 34.2 °F 35.6 °F 87% 29.53 in 6.2 mi South 6.9 mph - N/A   Partly Cloudy